User: anonymous
Location: Unspecified
(0.0000°N, 0.0000°E)
Time: 08:19:01
(UTC+00:00)
Language:

SES 6 - Orbit

View from above orbital plane
View from above orbital plane
View from above satellite
View from above satellite

Ground track
Ground track

The orbit data is extracted from the following two-line orbital elements,

1 39172U 13026A   14265.40189760 -.00000277  00000-0  00000+0 0  3380
2 39172 000.0124 070.9896 0002221 128.8013 265.5847 01.00271757  4775
Epoch (UTC): 22 September 2014 09:38:43
Eccentricity: 0.0002221
inclination: 0.0124°
perigee height: 35777 km
apogee height: 35795 km
right ascension of ascending node: 70.9896°
argument of perigee: 128.8013°
revolutions per day: 1.00271757
mean anomaly at epoch: 265.5847°
orbit number at epoch: 477

The dashed part of the orbit path shows where the satellite is in the earth's shadow,  

DLR